FW7705 Weather Reports


Display with metric or nautical units.
time (UTC)temp
F
wind
direction
speed
MPH
gust
MPH
rain 1hr
in
rain 24hr
in
rain mn
in
humidity
%
barometer
mb
20260831130336 62 173 1.0 1.0 0.00 0.00 0.00 99 1021.1
20260831125835 62 173 0.0 1.0 0.00 0.00 0.00 99 1021.1
20260831125331 61 173 2.0 2.0 0.00 0.00 0.00 99 1021.3
20260831124830 61 173 2.0 2.0 0.00 0.00 0.00 99 1021.0
20260831124327 61 175 0.0 1.0 0.00 0.00 0.00 99 1021.0
20260831123827 60 175 0.0 1.0 0.00 0.00 0.00 99 1020.9
20260831123325 61 169 1.0 1.0 0.00 0.00 0.00 99 1020.9
20260831122820 61 116 0.0 0.0 0.00 0.00 0.00 99 1020.9
20260831122316 60 315 0.0 0.0 0.00 0.00 0.00 99 1021.0
20260831121816 60 316 0.0 0.0 0.00 0.00 0.00 99 1021.0
20260831121312 60 316 0.0 0.0 0.00 0.00 0.00 99 1021.3
20260831120808 60 316 0.0 0.0 0.00 0.00 0.00 99 1021.0
20260831120308 59 316 0.0 0.0 0.00 0.00 0.00 99 1021.2
20260831115803 59 316 0.0 0.0 0.00 0.00 0.00 99 1021.2
20260831115259 59 316 0.0 0.0 0.00 0.00 0.00 99 1021.3
20260831114759 59 316 0.0 0.0 0.00 0.00 0.00 99 1021.2
20260831114258 59 316 0.0 0.0 0.00 0.00 0.00 99 1021.1
20260831113754 59 316 1.0 1.0 0.00 0.00 0.00 99 1020.8
20260831113248 59 316 0.0 0.0 0.00 0.00 0.00 99 1021.1
20260831112748 59 316 2.0 2.0 0.00 0.00 0.00 99 1021.0
20260831112243 59 317 0.0 0.0 0.00 0.00 0.00 99 1020.9
20260831111738 59 317 0.0 0.0 0.00 0.00 0.00 99 1020.8
20260831111235 58 317 0.0 0.0 0.00 0.00 0.00 99 1020.7
20260831110730 58 317 0.0 0.0 0.00 0.00 0.00 99 1020.9
20260831110225 58 317 0.0 0.0 0.00 0.00 0.00 99 1021.0
20260831105723 58 317 0.0 0.0 0.00 0.00 0.00 99 1020.7
20260831105220 58 317 0.0 0.0 0.00 0.00 0.00 99 1020.6
20260831104714 58 317 0.0 0.0 0.00 0.00 0.00 99 1020.6
20260831104211 58 317 0.0 0.0 0.00 0.00 0.00 99 1020.4
20260831103711 58 317 0.0 0.0 0.00 0.00 0.00 99 1020.5
20260831103207 58 317 0.0 0.0 0.00 0.00 0.00 99 1020.4
20260831102706 58 317 0.0 0.0 0.00 0.00 0.00 99 1020.3
20260831102207 57 317 0.0 0.0 0.00 0.00 0.00 99 1020.1
20260831101702 57 317 0.0 0.0 0.00 0.00 0.00 99 1020.6
20260831101158 57 317 0.0 0.0 0.00 0.00 0.00 99 1020.4
20260831100654 57 317 0.0 0.0 0.00 0.00 0.00 99 1020.4
20260831100150 57 317 0.0 0.0 0.00 0.00 0.00 99 1020.5
20260831095647 57 317 0.0 0.0 0.00 0.00 0.00 99 1020.3
20260831095144 57 317 0.0 0.0 0.00 0.00 0.00 99 1020.5
20260831094643 57 317 0.0 0.0 0.00 0.00 0.00 99 1020.2
20260831094140 57 317 0.0 0.0 0.00 0.00 0.00 99 1020.1
20260831093635 57 317 0.0 0.0 0.00 0.00 0.00 99 1020.3
20260831093131 57 317 0.0 0.0 0.00 0.00 0.00 99 1020.3
20260831092627 57 317 0.0 0.0 0.00 0.00 0.00 99 1020.5
20260831092122 57 317 0.0 0.0 0.00 0.00 0.00 99 1020.5
20260831091622 57 317 0.0 0.0 0.00 0.00 0.00 99 1020.5
20260831091118 57 317 0.0 0.0 0.00 0.00 0.00 99 1020.5
20260831090613 57 317 0.0 0.0 0.00 0.00 0.00 99 1020.3
20260831090109 57 317 0.0 0.0 0.00 0.00 0.00 99 1020.4
20260831085604 57 317 0.0 0.0 0.00 0.00 0.00 99 1020.6
20260831085059 56 317 0.0 0.0 0.00 0.00 0.00 99 1020.6
20260831084555 56 317 0.0 0.0 0.00 0.00 0.00 99 1020.6
20260831084051 56 317 0.0 0.0 0.00 0.00 0.00 99 1020.2
20260831083547 57 317 0.0 0.0 0.00 0.00 0.00 99 1020.3
20260831083042 57 317 0.0 0.0 0.00 0.00 0.00 99 1020.3
20260831082541 56 317 0.0 0.0 0.00 0.00 0.00 99 1020.2
20260831082036 56 317 0.0 0.0 0.00 0.00 0.00 99 1020.5
20260831081532 56 317 0.0 0.0 0.00 0.00 0.00 99 1020.6
20260831081028 56 317 0.0 0.0 0.00 0.00 0.00 99 1020.2
20260831080528 56 317 0.0 0.0 0.00 0.00 0.00 99 1020.3
20260831080024 57 317 0.0 0.0 0.00 0.00 0.00 99 1020.3
20260831075519 56 317 0.0 0.0 0.00 0.00 0.00 99 1020.3
20260831075015 56 317 0.0 0.0 0.00 0.00 0.00 99 1020.2
20260831074514 57 317 0.0 0.0 0.00 0.00 0.00 99 1020.3
20260831074014 57 317 0.0 0.0 0.00 0.00 0.00 99 1020.4
20260831073514 57 317 0.0 0.0 0.00 0.00 0.00 99 1020.5
20260831073008 56 317 0.0 0.0 0.00 0.00 0.00 99 1020.5
20260831072503 57 317 0.0 0.0 0.00 0.00 0.00 99 1020.4
20260831071959 57 317 0.0 0.0 0.00 0.00 0.00 99 1020.4
20260831071458 57 317 0.0 0.0 0.00 0.00 0.00 99 1020.3
20260831070954 57 317 0.0 0.0 0.00 0.00 0.00 99 1020.3
20260831070453 57 317 0.0 0.0 0.00 0.00 0.00 99 1020.2
20260831065952 57 317 0.0 0.0 0.00 0.00 0.00 99 1020.3
20260831065450 57 317 0.0 0.0 0.00 0.00 0.00 99 1020.4
20260831064945 57 317 0.0 0.0 0.00 0.00 0.00 99 1020.3
20260831064440 57 317 0.0 0.0 0.00 0.00 0.00 99 1020.2
20260831063936 57 317 0.0 0.0 0.00 0.00 0.00 99 1020.4
20260831063431 57 317 0.0 0.0 0.00 0.00 0.00 99 1020.4
20260831062925 57 317 0.0 0.0 0.00 0.00 0.00 99 1020.3
20260831062422 57 317 0.0 0.0 0.00 0.00 0.00 99 1020.3
20260831061920 58 317 0.0 0.0 0.00 0.00 0.00 99 1020.4
20260831061419 58 317 0.0 0.0 0.00 0.00 0.00 99 1020.7
20260831060916 59 317 0.0 0.0 0.00 0.00 0.00 99 1020.6
20260831060415 59 317 0.0 0.0 0.00 0.00 0.00 99 1020.5
20260831055914 58 317 0.0 0.0 0.00 0.00 0.00 99 1020.8
20260831055410 58 317 0.0 0.0 0.00 0.00 0.00 99 1020.9
20260831054905 59 317 0.0 0.0 0.00 0.00 0.00 99 1020.7
20260831054400 59 317 0.0 0.0 0.00 0.00 0.00 99 1020.8
20260831053859 59 317 0.0 0.0 0.00 0.00 0.00 99 1020.7
20260831053357 59 317 0.0 0.0 0.00 0.00 0.00 99 1021.0
20260831052852 59 317 0.0 0.0 0.00 0.00 0.00 99 1021.0
20260831052352 59 317 0.0 0.0 0.00 0.00 0.00 99 1021.0
20260831051850 59 317 0.0 0.0 0.00 0.00 0.00 98 1021.0
20260831051348 59 317 0.0 0.0 0.00 0.00 0.00 99 1020.8
20260831050844 59 317 0.0 0.0 0.00 0.00 0.00 98 1020.7
20260831050344 60 317 0.0 0.0 0.00 0.00 0.00 99 1020.9
20260831045844 60 317 0.0 0.0 0.00 0.00 0.00 98 1020.9
20260831045343 60 317 0.0 0.0 0.00 0.00 0.00 98 1020.6
20260831044839 59 317 0.0 0.0 0.00 0.00 0.00 98 1020.9
20260831044338 59 317 0.0 0.0 0.00 0.00 0.00 98 1021.0
20260831043835 59 317 0.0 0.0 0.00 0.00 0.00 98 1020.9
20260831043334 60 317 0.0 0.0 0.00 0.00 0.00 98 1020.7
20260831042829 60 317 0.0 0.0 0.00 0.00 0.00 98 1020.9
20260831042328 60 317 0.0 0.0 0.00 0.00 0.00 97 1020.8
20260831041824 60 317 0.0 0.0 0.00 0.00 0.00 98 1021.1
20260831041323 60 317 0.0 0.0 0.00 0.00 0.00 97 1021.0
20260831040818 60 317 0.0 0.0 0.00 0.00 0.00 97 1021.0
20260831040317 60 317 0.0 0.0 0.00 0.00 0.00 97 1021.0
20260831035816 61 317 0.0 0.0 0.00 0.00 0.00 96 1020.7
20260831035316 61 317 0.0 0.0 0.00 0.00 0.00 96 1020.6
20260831034815 61 317 0.0 0.0 0.00 0.00 0.00 96 1020.8
20260831034311 61 317 0.0 0.0 0.00 0.00 0.00 96 1020.8
20260831033807 61 317 0.0 0.0 0.00 0.00 0.00 96 1020.8
20260831033306 61 317 0.0 0.0 0.00 0.00 0.00 96 1021.1
20260831032802 62 317 0.0 0.0 0.00 0.00 0.00 96 1020.9
20260831032256 62 317 0.0 0.0 0.00 0.00 0.00 95 1020.9
20260831031751 62 317 0.0 0.0 0.00 0.00 0.00 95 1021.1
20260831031246 62 317 0.0 0.0 0.00 0.00 0.00 95 1021.0
20260831030746 62 317 0.0 0.0 0.00 0.00 0.00 95 1020.8
20260831030244 62 317 0.0 0.0 0.00 0.00 0.00 95 1021.1
20260831025743 63 317 0.0 0.0 0.00 0.00 0.00 94 1021.0
20260831025238 63 317 0.0 0.0 0.00 0.00 0.00 94 1021.0
20260831024734 63 317 1.0 1.0 0.00 0.00 0.00 94 1021.1
20260831024232 63 317 1.0 1.0 0.00 0.00 0.00 94 1020.9
20260831023731 63 317 0.0 0.0 0.00 0.00 0.00 93 1021.1
20260831023226 63 317 0.0 0.0 0.00 0.00 0.00 93 1021.1
20260831022721 63 317 0.0 0.0 0.00 0.00 0.00 93 1021.0
20260831022220 63 317 0.0 0.0 0.00 0.00 0.00 93 1021.0
20260831021720 63 317 0.0 0.0 0.00 0.00 0.00 93 1021.1
20260831021214 63 317 0.0 0.0 0.00 0.00 0.00 93 1021.0
20260831020711 64 317 0.0 0.0 0.00 0.00 0.00 93 1020.9
20260831020210 64 317 0.0 0.0 0.00 0.00 0.00 92 1021.0
20260831015706 64 317 0.0 0.0 0.00 0.00 0.00 92 1021.0
20260831015206 64 317 0.0 0.0 0.00 0.00 0.00 91 1021.0
20260831014701 64 317 0.0 0.0 0.00 0.00 0.00 90 1020.8
20260831014156 64 317 0.0 0.0 0.00 0.00 0.00 89 1020.8
20260831013652 64 317 0.0 0.0 0.00 0.00 0.00 89 1020.7
20260831013152 64 317 0.0 1.0 0.00 0.00 0.00 89 1020.9
20260831012647 64 317 0.0 1.0 0.00 0.00 0.00 89 1021.0
20260831012142 64 317 0.0 0.0 0.00 0.00 0.00 91 1020.9
20260831011641 64 317 0.0 0.0 0.00 0.00 0.00 90 1020.8
20260831011137 64 317 0.0 0.0 0.00 0.00 0.00 90 1020.8
20260831010633 64 317 0.0 0.0 0.00 0.00 0.00 91 1020.9
20260831010128 64 317 0.0 0.0 0.00 0.00 0.00 90 1020.7
20260831005628 64 317 0.0 0.0 0.00 0.00 0.00 90 1020.6
20260831005124 64 317 0.0 0.0 0.00 0.00 0.00 89 1020.6
20260831004619 64 317 0.0 0.0 0.00 0.00 0.00 89 1020.6
20260831004115 64 317 0.0 0.0 0.00 0.00 0.00 88 1020.3
20260831003611 64 317 0.0 0.0 0.00 0.00 0.00 88 1020.5
20260831003107 64 317 0.0 0.0 0.00 0.00 0.00 88 1020.3
20260831002605 64 316 1.0 1.0 0.00 0.00 0.00 88 1020.1
20260831002100 65 317 0.0 0.0 0.00 0.00 0.00 88 1020.1
20260831001555 65 317 0.0 0.0 0.00 0.00 0.00 87 1019.8
20260831001052 65 317 0.0 0.0 0.00 0.00 0.00 87 1019.8
20260831000548 65 316 1.0 1.0 0.00 0.00 0.00 87 1019.7
20260831000047 65 316 1.0 2.0 0.00 0.00 0.00 86 1019.9
20260830235546 66 317 1.0 1.0 0.00 0.00 0.00 85 1019.8
20260830235042 66 317 0.0 0.0 0.00 0.00 0.00 84 1019.8
20260830234542 66 317 1.0 1.0 0.00 0.00 0.00 83 1019.7
20260830234038 66 302 3.0 3.0 0.00 0.00 0.00 83 1019.7
20260830233533 66 247 2.0 2.0 0.00 0.00 0.00 82 1019.9
20260830233029 66 270 2.0 2.0 0.00 0.00 0.00 82 1019.8
20260830232525 66 295 2.0 3.0 0.00 0.00 0.00 82 1019.6
20260830232021 67 278 3.0 4.0 0.00 0.00 0.00 81 1019.7
20260830231516 67 249 2.0 2.0 0.00 0.00 0.00 81 1019.7
20260830231015 67 248 3.0 4.0 0.00 0.00 0.00 81 1019.6
20260830230511 67 92 1.0 2.0 0.00 0.00 0.00 80 1019.6
20260830230011 67 244 1.0 1.0 0.00 0.00 0.00 80 1019.7
20260830225506 67 200 2.0 2.0 0.00 0.00 0.00 80 1020.0
20260830225006 67 77 2.0 2.0 0.00 0.00 0.00 81 1019.7
20260830224504 67 305 1.0 2.0 0.00 0.00 0.00 80 1019.9
20260830224001 67 288 3.0 3.0 0.00 0.00 0.00 81 1019.8
20260830223458 67 207 0.0 0.0 0.00 0.00 0.00 81 1019.8
20260830222957 68 182 1.0 1.0 0.00 0.00 0.00 80 1019.5
20260830222452 68 161 0.0 0.0 0.00 0.00 0.00 80 1019.7
20260830221947 68 251 2.0 2.0 0.00 0.00 0.00 79 1019.5
20260830221443 68 166 1.0 1.0 0.00 0.00 0.00 80 1019.7
20260830220939 68 307 1.0 1.0 0.00 0.00 0.00 79 1019.7
20260830220439 68 248 2.0 2.0 0.00 0.00 0.00 79 1019.6
20260830215936 68 246 3.0 3.0 0.00 0.00 0.00 78 1019.5
20260830215432 68 168 1.0 1.0 0.00 0.00 0.00 79 1019.7
20260830214926 68 338 2.0 3.0 0.00 0.00 0.00 77 1019.4
20260830214422 68 272 1.0 2.0 0.00 0.00 0.00 77 1019.6
20260830213922 68 227 2.0 2.0 0.00 0.00 0.00 77 1019.4
20260830213417 68 278 0.0 1.0 0.00 0.00 0.00 78 1019.6
20260830212913 68 278 1.0 1.0 0.00 0.00 0.00 77 1019.7
20260830212408 68 289 3.0 3.0 0.00 0.00 0.00 76 1019.6
20260830211903 68 259 0.0 0.0 0.00 0.00 0.00 77 1019.6
20260830211402 68 243 1.0 2.0 0.00 0.00 0.00 77 1019.7
20260830210858 69 170 1.0 1.0 0.00 0.00 0.00 76 1019.8
20260830210357 69 298 2.0 2.0 0.00 0.00 0.00 76 1019.7
20260830205855 69 354 2.0 2.0 0.00 0.00 0.00 76 1019.5
20260830205354 69 272 2.0 2.0 0.00 0.00 0.00 76 1019.7
20260830204849 69 126 0.0 1.0 0.00 0.00 0.00 75 1019.6
20260830204348 69 144 0.0 0.0 0.00 0.00 0.00 76 1019.6
20260830203844 69 143 0.0 0.0 0.00 0.00 0.00 77 1019.4
20260830203341 69 137 0.0 0.0 0.00 0.00 0.00 74 1019.6
20260830202839 69 38 2.0 2.0 0.00 0.00 0.00 74 1019.7
20260830202335 69 169 1.0 2.0 0.00 0.00 0.00 75 1019.4
20260830201831 69 142 1.0 1.0 0.00 0.00 0.00 75 1019.6
20260830201330 69 167 1.0 2.0 0.00 0.00 0.00 75 1019.7
20260830200825 69 58 1.0 1.0 0.00 0.00 0.00 75 1019.7
20260830200325 69 293 2.0 2.0 0.00 0.00 0.00 75 1019.8
20260830195821 69 20 2.0 3.0 0.00 0.00 0.00 75 1019.8
20260830195320 69 44 1.0 2.0 0.00 0.00 0.00 73 1019.6
20260830194819 69 289 1.0 2.0 0.00 0.00 0.00 74 1019.7
20260830194318 68 358 1.0 1.0 0.00 0.00 0.00 75 1019.7
20260830193814 68 324 1.0 1.0 0.00 0.00 0.00 74 1019.6
20260830193313 69 310 2.0 3.0 0.00 0.00 0.00 74 1019.8
20260830192809 69 340 4.0 4.0 0.00 0.00 0.00 73 1019.8
20260830192309 69 351 4.0 4.0 0.00 0.00 0.00 73 1020.0
20260830191805 70 347 4.0 4.0 0.00 0.00 0.00 72 1020.1
20260830191304 70 357 2.0 3.0 0.00 0.00 0.00 72 1019.7
20260830190800 70 307 1.0 2.0 0.00 0.00 0.00 72 1019.8
20260830190255 71 18 3.0 4.0 0.00 0.00 0.00 71 1019.9
20260830185753 71 10 3.0 3.0 0.00 0.00 0.00 71 1019.7
20260830185249 72 284 3.0 4.0 0.00 0.00 0.00 70 1019.5
20260830184749 72 317 3.0 3.0 0.00 0.00 0.00 68 1019.6
20260830184247 73 292 6.0 8.0 0.00 0.00 0.00 68 1019.6
20260830183743 73 356 4.0 4.0 0.00 0.00 0.00 73 1019.6
20260830183238 74 6 1.0 1.0 0.00 0.00 0.00 73 1019.6
20260830182738 74 257 2.0 2.0 0.00 0.00 0.00 71 1019.5
20260830182235 75 230 0.0 0.0 0.00 0.00 0.00 73 1019.6
20260830181731 75 206 0.0 1.0 0.00 0.00 0.00 69 1019.6
20260830181226 75 208 1.0 1.0 0.00 0.00 0.00 68 1019.6
20260830180725 75 290 1.0 1.0 0.00 0.00 0.00 69 1019.6
20260830180220 75 164 1.0 1.0 0.00 0.00 0.00 71 1019.6
20260830175719 75 224 0.0 0.0 0.00 0.00 0.00 75 1019.6
20260830175214 75 224 0.0 0.0 0.00 0.00 0.00 69 1019.7
20260830174709 74 224 0.0 0.0 0.00 0.00 0.00 70 1019.6
20260830174206 74 224 0.0 0.0 0.00 0.00 0.00 76 1020.0
20260830173705 75 289 3.0 3.0 0.00 0.00 0.00 66 1019.7
20260830173200 75 183 1.0 1.0 0.00 0.00 0.00 67 1019.9
20260830172656 75 157 1.0 1.0 0.00 0.00 0.00 67 1019.9
20260830172153 74 282 2.0 3.0 0.00 0.00 0.00 68 1019.8
20260830171653 75 192 1.0 2.0 0.00 0.00 0.00 69 1020.0
20260830171148 75 300 1.0 1.0 0.00 0.00 0.00 66 1019.9
20260830170643 74 287 0.0 0.0 0.00 0.00 0.00 69 1020.0
20260830170142 74 170 0.0 1.0 0.00 0.00 0.00 66 1020.0
20260830165637 74 114 1.0 2.0 0.00 0.00 0.00 66 1020.0
20260830165133 73 342 1.0 2.0 0.00 0.00 0.00 67 1020.1
20260830164629 75 313 3.0 3.0 0.00 0.00 0.00 67 1020.3
20260830164125 75 203 2.0 2.0 0.00 0.00 0.00 68 1020.2
20260830163622 75 288 2.0 2.0 0.00 0.00 0.00 69 1020.3
20260830163121 75 286 3.0 4.0 0.00 0.00 0.00 64 1020.4
20260830162616 75 152 2.0 2.0 0.00 0.00 0.00 65 1020.2
20260830162112 75 263 5.0 7.0 0.00 0.00 0.00 65 1020.5
20260830161612 74 254 4.0 4.0 0.00 0.00 0.00 67 1020.4
20260830161107 74 281 4.0 4.0 0.00 0.00 0.00 64 1020.4
20260830160603 73 180 1.0 1.0 0.00 0.00 0.00 70 1020.6
20260830160058 73 159 0.0 0.0 0.00 0.00 0.00 66 1020.5
20260830155554 73 263 2.0 3.0 0.00 0.00 0.00 68 1020.4
20260830155049 73 270 3.0 4.0 0.00 0.00 0.00 68 1020.6
20260830154544 72 194 2.0 2.0 0.00 0.00 0.00 71 1020.5
20260830154041 72 282 3.0 3.0 0.00 0.00 0.00 70 1020.7
20260830153537 73 285 3.0 3.0 0.00 0.00 0.00 68 1020.9
20260830153037 73 158 3.0 4.0 0.00 0.00 0.00 69 1020.9
20260830152531 72 201 5.0 6.0 0.00 0.00 0.00 69 1020.7
20260830152031 72 171 1.0 1.0 0.00 0.00 0.00 69 1020.5
20260830151530 70 98 1.0 1.0 0.00 0.00 0.00 73 1020.6
20260830151025 70 132 2.0 3.0 0.00 0.00 0.00 73 1020.5
20260830150525 70 142 1.0 2.0 0.00 0.00 0.00 74 1020.8
20260830150020 69 172 1.0 1.0 0.00 0.00 0.00 74 1020.6
20260830145519 69 172 0.0 0.0 0.00 0.00 0.00 76 1020.9
20260830145015 68 109 1.0 2.0 0.00 0.00 0.00 74 1020.8
20260830144510 68 170 0.0 1.0 0.00 0.00 0.00 76 1020.7
20260830144006 68 151 0.0 1.0 0.00 0.00 0.00 76 1020.8
20260830143502 67 136 2.0 3.0 0.00 0.00 0.00 75 1021.1
20260830143000 67 181 1.0 2.0 0.00 0.00 0.00 74 1020.9
20260830142455 67 163 0.0 1.0 0.00 0.00 0.00 75 1020.9
20260830141949 67 294 2.0 3.0 0.00 0.00 0.00 74 1020.6
20260830141445 68 122 0.0 0.0 0.00 0.00 0.00 73 1020.5
20260830140940 68 162 0.0 0.0 0.00 0.00 0.00 74 1020.5
20260830140435 68 153 0.0 0.0 0.00 0.00 0.00 72 1020.5
20260830135934 68 161 5.0 9.0 0.00 0.00 0.00 69 1020.6
20260830135430 68 230 4.0 6.0 0.00 0.00 0.00 71 1020.8
20260830134926 67 260 4.0 6.0 0.00 0.00 0.00 76 1020.8
20260830134421 66 155 0.0 0.0 0.00 0.00 0.00 76 1020.7
20260830133916 66 130 0.0 0.0 0.00 0.00 0.00 79 1020.9
20260830133412 66 156 2.0 2.0 0.00 0.00 0.00 76 1021.0
20260830132907 66 166 0.0 0.0 0.00 0.00 0.00 79 1020.9
20260830132403 66 136 0.0 0.0 0.00 0.00 0.00 77 1020.9
20260830131902 65 84 1.0 1.0 0.00 0.00 0.00 81 1021.0
20260830131402 64 161 0.0 1.0 0.00 0.00 0.00 82 1021.2
20260830130856 63 157 1.0 1.0 0.00 0.00 0.00 86 1021.0